Location: Luxembourg
(49.6117°N, 6.1300°E)
Time: 06:29:39
(UTC+02:00)

Envisat - Pass Details

Date: 01 February 2019
Orbit: 764 x 766 km, 98.2° (Epoch: 18 April)

Event Time Altitude Azimuth Distance (km) Brightness Sun altitude
Rises 19:56:37 0° 190° (S) 3,218 6.3 -23.8°
Reaches altitude 10° 19:59:06 10° 199° (SSW) 2,297 5.6 -24.2°
Maximum altitude 20:03:42 35° 264° (W) 1,229 4.6 -24.9°
Drops below altitude 10° 20:08:22 10° 330° (NNW) 2,315 5.9 -25.7°
Sets 20:10:53 0° 340° (NNW) 3,246 6.6 -26.1°
